Temperature
31 31 31 31 31 31 31 31 30 30 29 29 29 29 28 27 27 26 26 25 24 23 22 21 21 21 20 20 20 20 19 19 18 18 18 17 17 17 17 17 17 17 16 16
30 31 31 31 31 31 31 31 31 30 29 30 29 28 27 27 26 26 25 24 23 22 22 21 21 20 20 20 20 19 19 18 18 18 17 17 17 17 17 17 16 16 16 16
29 30 30 29 30 31 31 31 31 30 30 30 29 28 27 26 26 25 24 24 22 21 21 21 20 20 20 19 19 19 18 18 17 17 17 17 17 16 16 16 16 16 16 16
28 28 27 29 31 31 31 31 31 31 30 30 29 28 27 26 25 24 24 23 22 22 21 21 20 20 19 19 18 18 18 17 17 17 17 16 16 16 16 16 16 16 15 15
28 27 28 29 30 30 29 29 30 30 29 28 28 27 26 25 24 24 23 22 22 21 21 20 20 19 18 18 18 17 17 17 16 16 16 16 16 16 16 15 15 15 15 15
27 26 27 28 30 30 30 27 29 29 28 27 27 26 25 24 24 23 22 22 21 21 20 20 19 18 18 18 17 17 16 16 16 16 16 15 15 15 15 15 15 15 15 15
26 26 28 29 30 29 27 26 27 27 27 27 25 25 24 23 23 22 22 21 21 20 20 19 18 18 18 17 17 16 16 16 15 15 15 15 15 15 15 15 15 14 14 14
26 26 26 28 29 27 25 26 26 26 26 25 25 24 23 23 22 21 21 21 20 19 19 18 18 18 17 17 16 16 16 15 15 15 15 15 15 14 14 14 14 14 14 14
26 26 26 26 26 25 25 25 25 26 25 24 24 24 23 22 21 21 20 20 19 19 18 18 17 17 17 16 16 16 15 15 15 15 15 14 14 14 14 14 14 14 14 13
25 26 26 26 25 25 24 25 25 24 24 24 23 23 22 21 20 20 19 19 18 18 17 17 17 16 16 16 15 15 15 15 15 15 14 14 14 14 14 14 14 14 13 13
24 25 25 25 24 24 24 24 24 23 23 23 22 22 21 20 19 19 18 18 18 17 17 16 16 16 15 15 15 14 14 14 14 14 14 14 14 14 14 14 14 13 13 13
23 23 24 23 23 23 23 23 22 22 22 22 21 21 20 19 19 18 18 17 17 17 16 16 15 15 15 15 14 14 14 14 14 14 14 14 14 13 13 13 13 13 13 13
23 23 23 22 22 22 22 22 22 21 21 21 20 20 20 19 18 18 17 17 16 16 16 15 15 15 14 14 14 14 14 14 13 13 13 13 13 13 13 13 13 13 13 12
22 21 22 22 21 21 21 21 21 21 21 20 20 19 19 18 18 17 17 16 16 16 15 15 15 14 14 14 14 14 13 13 13 13 13 13 13 13 13 13 13 13 12 12
21 21 21 21 20 20 20 20 20 20 20 19 19 18 18 18 17 17 16 16 16 15 15 15 14 14 14 14 13 13 13 13 13 13 13 13 13 13 13 13 13 12 12 12
20 20 20 20 20 20 20 20 20 19 19 19 18 18 17 17 16 16 16 16 15 15 14 14 14 14 14 13 13 13 13 13 13 13 13 13 13 13 13 13 12 12 12 11
19 19 19 19 19 19 19 19 19 19 18 18 18 17 17 16 16 15 15 15 15 14 14 14 14 14 13 13 13 13 13 13 13 13 12 12 12 12 12 12 12 12 11 11
19 19 18 18 18 18 18 18 18 18 17 17 17 16 16 15 15 15 14 14 14 14 14 14 14 13 13 13 13 13 12 12 12 12 12 12 12 12 12 12 11 11 11 11
18 18 18 18 17 17 17 17 17 17 17 16 16 16 15 15 14 14 14 14 14 13 13 13 13 13 13 13 13 12 12 12 12 12 12 11 11 11 11 11 11 11 11 11
18 17 17 17 17 17 16 16 16 16 16 16 15 15 15 14 14 14 13 13 13 13 13 13 13 13 12 12 12 12 12 12 11 11 11 11 11 11 11 11 11 10 10 10
17 17 16 16 16 16 16 16 15 15 15 15 15 14 14 14 13 13 13 13 13 13 13 12 12 12 12 12 12 12 11 11 11 11 11 11 10 10 10 10 10 10 10 9
16 15 15 15 15 15 15 15 15 15 14 14 14 14 13 13 13 13 13 13 12 12 12 12 12 12 12 12 11 11 11 11 11 11 10 10 10 10 10 10 9 9 9 9
15 14 14 14 14 14 14 14 14 14 14 13 13 13 13 13 13 12 12 12 12 12 12 12 12 12 11 11 11 11 11 11 10 10 10 10 10 9 9 9 9 9 9 8
14 14 13 14 13 14 13 13 13 13 13 13 13 13 12 12 12 12 12 12 12 12 12 11 11 11 11 11 11 11 10 10 10 10 10 10 9 9 9 9 8 8 8 8
13 13 13 13 13 13 13 13 13 13 13 13 13 13 12 12 12 12 12 12 11 11 11 11 11 11 11 11 10 10 10 10 10 9 9 9 9 9 9 8 8 8 8 8
13 13 13 13 13 13 13 13 13 13 13 12 12 12 12 12 12 12 11 11 11 11 11 11 10 10 10 10 10 10 10 9 9 9 9 9 9 8 8 8 8 8 8 7
12 12 12 12 13 13 13 13 12 12 12 12 12 12 12 12 11 11 11 11 11 10 10 10 10 10 10 10 10 9 9 9 9 8 8 8 8 8 8 8 8 7 7 7
Wind_Speed
11 9 10 10 11 10 10 10 10 7 4 3 3 3 3 2 4 4 4 5 5 5 4 4 3 2 2 2 2 2 2 2 2 2 2 2 2 2 2 2 3 2 2 3
12 12 11 11 12 11 10 10 9 7 3 3 4 4 4 4 4 3 3 5 5 4 3 3 2 2 1 2 2 2 2 2 1 2 2 2 2 2 2 2 2 2 2 2
12 11 12 14 12 11 9 8 8 5 1 2 2 4 5 5 4 4 4 4 4 3 1 2 1 1 0 1 2 2 1 1 1 1 2 2 3 3 3 3 2 2 2 2
10 10 14 9 6 6 7 7 5 2 1 2 2 3 4 6 6 4 3 3 3 2 1 1 1 1 0 1 1 1 1 0 0 1 1 2 3 3 3 2 2 2 3 3
10 12 12 10 7 5 5 4 4 2 2 4 2 3 5 6 6 5 4 4 3 1 1 2 3 2 2 0 1 1 0 1 1 1 2 3 3 3 2 2 3 3 2 2
10 12 13 7 3 3 4 4 2 3 2 3 2 1 3 5 6 6 5 4 3 2 2 3 3 3 1 0 0 0 1 2 2 2 3 4 3 2 2 2 3 3 2 3
12 13 10 3 1 3 5 1 5 4 3 3 4 3 4 6 5 5 4 3 3 3 2 2 2 2 1 1 1 2 2 2 2 2 3 2 1 1 2 2 3 3 3 3
10 13 6 5 2 1 3 4 4 3 3 3 5 5 5 5 5 4 4 3 3 3 3 3 3 2 1 1 2 1 1 2 2 2 3 2 1 2 3 3 3 3 3 3
3 3 3 5 5 4 4 3 3 3 3 2 2 4 5 4 3 3 3 3 3 3 3 3 3 2 1 1 2 2 1 1 2 2 2 2 2 3 3 3 3 3 2 2
4 2 2 3 4 4 2 2 3 2 2 2 2 3 3 3 3 3 3 3 3 3 2 2 2 1 1 2 2 2 2 2 2 2 2 2 2 2 2 2 3 3 2 2
4 4 5 4 4 3 2 3 3 3 4 3 3 3 3 2 2 2 2 2 2 2 2 2 2 1 1 2 2 3 3 3 3 3 2 2 2 2 3 2 1 2 2 2
3 2 5 4 5 6 4 3 3 3 4 4 3 2 2 2 3 2 1 2 2 2 2 2 2 2 2 2 2 3 3 3 3 3 2 2 2 2 3 2 1 1 1 1
4 5 5 4 5 6 5 3 2 2 1 2 1 1 1 1 2 1 1 1 1 1 1 1 1 1 1 2 2 3 4 4 3 3 3 3 2 2 2 2 2 1 1 1
5 6 5 5 5 5 6 5 3 2 1 1 1 1 1 1 1 1 1 1 2 1 1 1 1 2 2 2 2 3 4 4 3 3 3 3 3 2 2 2 2 2 2 3
3 5 5 5 5 5 5 4 3 3 2 1 1 1 1 0 1 1 1 1 1 1 1 1 1 1 1 2 2 3 4 3 3 4 3 3 4 3 2 2 2 1 1 1
5 5 5 5 5 5 5 5 4 4 3 2 2 2 1 1 1 1 1 1 0 1 1 1 2 2 2 2 3 3 2 2 4 4 4 3 3 3 3 2 2 1 1 2
5 5 4 5 6 6 5 4 4 4 4 3 2 1 1 2 2 1 1 1 1 1 1 1 2 1 1 1 3 3 3 2 3 3 4 4 3 3 3 3 3 2 1 1
6 6 5 6 6 7 5 3 3 3 4 4 2 1 1 1 1 2 2 2 2 2 2 1 1 1 1 1 2 3 3 2 3 3 3 3 4 3 3 2 3 3 2 2
6 6 6 5 5 6 5 3 3 3 3 2 2 1 1 1 1 2 2 2 2 2 2 2 1 1 2 2 2 2 2 2 2 2 2 2 3 3 2 2 2 2 2 2
4 4 4 3 3 4 4 2 3 2 2 1 1 1 1 1 1 1 2 2 2 2 1 1 1 2 2 2 3 3 3 2 2 2 3 3 3 3 2 2 3 3 3 3
3 2 2 1 2 2 3 2 2 2 1 1 1 1 1 1 1 1 1 2 2 2 1 1 1 1 2 3 3 3 3 3 2 2 3 3 3 3 2 3 3 3 3 3
2 1 1 2 2 2 3 3 2 3 2 2 1 2 2 2 1 1 1 1 1 1 1 1 2 2 3 3 3 2 3 2 2 2 3 3 3 3 3 3 3 3 3 3
2 2 1 2 2 2 3 3 2 2 2 1 1 2 2 2 1 1 1 1 1 1 1 2 2 2 3 2 2 2 2 2 2 2 2 2 3 3 3 3 3 2 2 3
2 3 3 2 2 2 3 3 1 1 2 2 2 2 2 1 1 1 1 1 1 1 1 1 2 1 2 2 2 2 2 2 2 2 3 3 3 3 2 2 3 3 3 3
2 2 2 2 2 2 2 2 2 2 3 2 2 1 1 1 1 1 1 1 1 1 1 1 3 3 2 1 1 2 2 2 2 2 3 3 3 2 2 2 2 3 3 4
1 2 1 2 2 2 3 3 2 2 2 2 1 1 0 0 0 1 1 1 1 0 1 1 0 1 1 1 2 2 2 1 2 2 2 2 2 3 3 3 3 3 3 3
2 1 1 2 2 2 2 1 1 1 1 1 1 1 1 1 1 1 1 1 1 1 1 1 1 1 2 2 2 2 2 2 2 2 3 3 2 2 3 3 3 3 3 3
Wind_Direction
274 274 264 263 265 266 260 266 267 272 251 204 158 141 121 101 95 92 95 102 103 103 112 121 126 138 147 147 136 138 145 163 170 179 184 207 223 238 235 243 258 264 263 269
266 271 273 270 272 268 268 265 258 256 240 154 152 121 115 122 117 112 109 105 100 92 106 119 120 135 159 160 146 142 158 168 183 187 196 217 220 228 236 241 252 254 261 272
264 265 274 266 265 264 264 267 267 262 207 92 84 101 124 120 116 102 98 106 111 121 124 134 123 115 241 166 136 149 166 187 208 203 210 232 246 242 245 244 252 264 268 264
265 263 260 264 283 286 279 282 289 298 335 56 61 76 101 113 105 92 84 91 96 96 78 122 117 120 176 159 151 138 139 145 247 234 254 258 260 256 259 267 266 252 250 251
268 266 262 257 262 271 276 285 325 328 52 53 39 104 103 96 97 86 72 70 86 80 62 83 95 87 77 129 135 137 228 282 287 273 267 265 265 253 248 253 257 251 261 259
257 263 266 264 271 280 267 243 350 22 48 57 31 307 100 85 85 80 70 62 71 65 53 66 69 80 91 272 63 336 297 286 281 274 273 270 268 273 270 262 258 260 260 267
252 258 264 305 273 264 264 304 28 26 52 63 68 54 84 81 74 71 65 62 64 70 75 77 76 83 64 343 351 330 311 297 285 283 284 275 290 309 286 271 269 264 260 255
248 253 257 9 327 19 71 42 37 19 30 49 81 95 89 78 66 55 52 52 42 51 59 68 77 83 63 6 357 347 334 313 305 298 291 300 315 281 266 264 262 256 257 263
278 275 39 34 46 63 73 36 14 15 37 55 63 88 86 81 72 49 37 36 22 32 62 61 59 47 6 355 339 323 308 302 303 299 301 311 280 276 268 268 273 277 270 280
285 287 357 21 32 35 14 9 347 23 52 32 52 73 78 76 66 42 19 17 21 24 28 30 39 32 6 358 338 308 291 290 280 271 280 301 294 281 277 281 288 296 298 300
282 320 327 339 358 342 349 5 7 33 26 10 51 69 60 67 71 64 34 359 17 18 6 6 7 20 5 353 337 316 298 289 286 284 285 294 294 299 288 292 265 279 304 309
303 337 302 329 342 347 354 12 19 19 22 18 31 43 46 57 62 52 26 21 22 25 27 17 6 3 5 358 350 320 298 290 290 287 285 277 276 311 346 308 237 203 200 243
321 316 329 347 347 347 349 342 347 356 355 354 11 19 14 72 82 52 15 6 9 9 29 11 1 351 355 355 338 320 310 301 296 295 288 281 275 276 302 337 348 318 255 248
350 343 336 336 339 335 323 320 328 323 335 21 3 356 346 36 75 45 358 342 347 352 34 343 343 357 342 329 311 306 305 301 302 311 310 302 296 288 284 282 293 300 274 237
312 306 304 316 314 312 313 308 304 303 317 328 306 301 308 344 311 308 313 315 356 340 333 312 308 300 308 299 283 288 300 319 326 316 308 310 310 306 307 302 287 279 303 297
295 292 295 298 295 294 291 288 284 279 287 289 292 308 313 305 290 279 294 298 232 281 288 285 288 297 301 308 304 291 282 287 297 304 312 318 320 326 327 313 287 291 312 332
279 277 280 286 285 283 285 286 288 293 289 289 290 301 316 326 312 305 321 340 320 290 268 260 286 291 276 288 302 302 313 312 288 310 327 334 335 332 330 328 335 346 2 14
259 263 267 276 284 286 289 292 299 301 302 305 299 308 322 329 344 352 351 358 356 353 9 24 30 355 322 342 321 305 312 323 326 339 347 348 343 339 336 345 356 9 10 1
255 258 259 263 275 286 289 300 309 316 320 320 314 310 294 21 45 8 346 343 339 339 13 35 32 350 335 5 338 300 308 321 334 347 342 336 328 336 342 350 349 353 357 5
262 264 255 257 259 264 276 290 296 307 320 350 343 350 13 45 38 358 353 348 345 351 7 30 40 3 336 4 339 310 314 325 330 331 334 331 334 342 349 353 355 355 14 17
284 283 290 297 311 313 298 280 281 281 292 295 291 304 336 341 335 327 325 335 32 33 0 101 80 360 351 350 304 305 319 328 335 336 335 340 338 344 354 350 355 2 8 5
307 321 310 307 302 312 319 292 265 262 266 278 286 296 287 282 292 322 359 312 335 38 324 0 31 40 7 326 313 322 321 324 334 338 340 343 345 352 358 0 1 356 352 353
328 326 306 295 288 295 297 281 261 248 249 267 268 269 275 284 303 313 320 324 345 58 42 34 49 39 337 309 313 311 320 332 341 335 331 335 341 348 351 354 351 348 342 335
315 309 300 292 294 275 271 275 258 256 258 256 242 236 251 267 286 298 338 19 28 87 2 113 150 243 280 292 305 315 333 350 353 344 340 342 345 352 359 356 344 337 329 329
286 284 275 262 264 262 254 247 227 234 256 256 241 207 222 225 269 319 332 328 120 134 304 184 215 248 255 302 328 348 354 352 348 339 343 347 350 349 346 337 335 336 336 341
273 262 261 261 257 248 238 237 242 238 242 258 278 307 338 17 326 306 298 293 327 131 316 314 217 228 305 344 359 357 353 349 337 335 343 345 351 348 338 334 338 347 354 360
255 242 238 246 244 248 262 257 277 292 289 286 298 323 324 326 344 345 335 330 351 6 18 20 8 0 16 12 3 359 360 2 352 344 345 346 351 355 348 351 1 7 7 6
Height
1453 1451 1450 1453 1453 1451 1455 1457 1464 1463 1463 1462 1461 1463 1467 1471 1472 1474 1478 1481 1482 1485 1485 1487 1489 1490 1491 1492 1493 1494 1494 1495 1495 1495 1496 1496 1496 1496 1496 1495 1495 1494 1493 1493
1457 1451 1449 1452 1450 1448 1450 1451 1455 1457 1460 1456 1460 1463 1466 1470 1474 1476 1478 1481 1482 1485 1486 1487 1487 1489 1490 1491 1492 1492 1493 1493 1493 1493 1493 1494 1494 1493 1492 1492 1491 1490 1490 1490
1464 1454 1455 1461 1450 1449 1449 1448 1450 1457 1457 1455 1458 1463 1467 1471 1473 1476 1478 1481 1482 1485 1485 1486 1487 1487 1489 1490 1490 1491 1491 1491 1491 1491 1491 1491 1491 1490 1489 1489 1488 1487 1487 1486
1462 1463 1478 1456 1441 1442 1446 1447 1446 1448 1451 1455 1460 1464 1467 1470 1473 1476 1478 1480 1482 1483 1485 1485 1486 1486 1487 1488 1488 1489 1489 1489 1489 1489 1488 1488 1488 1487 1486 1486 1485 1484 1484 1483
1465 1469 1464 1452 1443 1444 1450 1452 1449 1451 1454 1458 1461 1465 1469 1471 1474 1476 1479 1480 1481 1483 1484 1484 1485 1485 1486 1486 1487 1487 1487 1487 1487 1487 1486 1485 1485 1484 1483 1483 1482 1481 1481 1480
1465 1472 1473 1455 1444 1444 1449 1459 1452 1453 1456 1459 1462 1467 1471 1472 1474 1476 1479 1480 1481 1482 1483 1483 1484 1484 1484 1485 1485 1485 1485 1485 1485 1484 1484 1483 1482 1481 1480 1480 1479 1478 1477 1477
1464 1467 1458 1446 1445 1447 1464 1466 1457 1457 1459 1461 1465 1469 1472 1474 1476 1478 1479 1480 1481 1481 1482 1482 1483 1483 1483 1484 1483 1483 1483 1483 1482 1482 1481 1481 1480 1479 1478 1477 1476 1475 1474 1473
1461 1466 1464 1449 1448 1455 1462 1460 1460 1460 1461 1464 1466 1469 1472 1474 1477 1478 1479 1480 1480 1481 1481 1481 1481 1482 1482 1482 1482 1481 1481 1480 1480 1479 1479 1479 1477 1476 1476 1475 1473 1472 1471 1470
1458 1460 1455 1454 1456 1459 1460 1462 1462 1462 1463 1466 1468 1470 1472 1475 1477 1479 1479 1479 1480 1480 1480 1480 1480 1481 1480 1480 1480 1479 1479 1478 1477 1477 1477 1476 1475 1474 1473 1472 1471 1470 1469 1468
1456 1453 1454 1456 1457 1460 1462 1463 1463 1464 1465 1467 1468 1470 1473 1475 1477 1478 1479 1479 1479 1479 1479 1479 1479 1479 1479 1478 1478 1477 1476 1476 1475 1475 1474 1474 1473 1472 1471 1470 1469 1468 1467 1465
1457 1457 1457 1458 1460 1462 1462 1463 1464 1466 1467 1468 1469 1471 1473 1475 1476 1477 1478 1478 1478 1477 1478 1478 1478 1478 1477 1477 1476 1475 1474 1474 1473 1473 1472 1471 1470 1470 1469 1467 1467 1466 1464 1463
1460 1461 1462 1462 1461 1462 1463 1464 1465 1466 1467 1469 1470 1471 1473 1474 1475 1476 1477 1477 1476 1476 1476 1477 1476 1475 1475 1474 1474 1473 1472 1472 1471 1471 1470 1469 1468 1466 1466 1465 1464 1463 1462 1461
1460 1461 1461 1462 1463 1463 1464 1465 1466 1467 1468 1469 1470 1471 1472 1473 1474 1475 1475 1475 1475 1475 1474 1475 1475 1474 1473 1472 1472 1471 1470 1470 1469 1469 1468 1467 1465 1464 1463 1462 1461 1460 1459 1458
1461 1461 1462 1464 1464 1465 1465 1465 1465 1466 1467 1468 1469 1470 1471 1472 1473 1473 1474 1474 1473 1473 1473 1473 1472 1472 1471 1470 1470 1469 1469 1469 1468 1466 1465 1464 1463 1462 1460 1459 1458 1457 1456 1455
1462 1463 1463 1464 1465 1465 1465 1464 1465 1466 1467 1468 1468 1469 1469 1470 1471 1471 1471 1471 1471 1471 1471 1470 1470 1469 1468 1467 1467 1467 1467 1467 1466 1465 1463 1462 1461 1460 1458 1457 1456 1455 1454 1452
1462 1462 1463 1464 1464 1464 1464 1464 1464 1465 1466 1466 1467 1467 1467 1468 1469 1469 1469 1469 1468 1468 1468 1467 1467 1466 1466 1465 1465 1465 1464 1464 1463 1463 1461 1460 1459 1457 1456 1455 1454 1452 1451 1450
1462 1461 1462 1463 1464 1463 1463 1463 1463 1464 1464 1465 1465 1465 1466 1466 1466 1467 1466 1466 1466 1466 1466 1465 1464 1464 1464 1463 1463 1463 1462 1461 1461 1460 1459 1458 1457 1455 1454 1453 1452 1451 1450 1449
1461 1461 1461 1462 1462 1462 1462 1462 1462 1463 1463 1463 1463 1463 1463 1464 1464 1465 1465 1464 1464 1464 1464 1463 1463 1462 1462 1461 1461 1460 1460 1459 1459 1458 1457 1456 1455 1454 1453 1451 1450 1449 1448 1448
1458 1459 1460 1460 1461 1461 1461 1461 1461 1461 1462 1462 1461 1462 1462 1463 1463 1464 1464 1463 1462 1462 1462 1461 1461 1460 1460 1459 1459 1458 1458 1458 1457 1456 1456 1455 1453 1452 1451 1450 1449 1448 1447 1446
1456 1457 1457 1458 1459 1459 1459 1460 1460 1460 1460 1461 1461 1461 1461 1461 1462 1462 1462 1461 1461 1460 1460 1459 1458 1458 1458 1457 1457 1457 1456 1456 1455 1455 1454 1453 1452 1451 1450 1449 1448 1448 1446 1445
1455 1456 1456 1456 1457 1458 1458 1458 1459 1459 1459 1460 1460 1460 1460 1460 1461 1461 1460 1460 1459 1459 1458 1457 1456 1456 1456 1455 1455 1455 1455 1455 1454 1453 1453 1452 1451 1450 1449 1448 1447 1446 1445 1444
1454 1455 1455 1455 1455 1456 1456 1457 1457 1457 1458 1459 1459 1459 1459 1459 1459 1459 1458 1458 1457 1457 1456 1456 1455 1454 1454 1454 1454 1454 1453 1453 1452 1452 1451 1450 1449 1448 1447 1447 1446 1445 1444 1443
1453 1453 1454 1454 1454 1454 1455 1455 1455 1455 1456 1457 1457 1457 1457 1457 1457 1456 1456 1456 1455 1455 1454 1454 1453 1453 1453 1453 1452 1452 1452 1452 1451 1450 1450 1449 1448 1447 1446 1445 1445 1444 1443 1442
1452 1452 1452 1452 1452 1452 1453 1452 1452 1453 1454 1455 1455 1455 1455 1455 1455 1455 1454 1454 1453 1453 1453 1452 1452 1452 1452 1451 1451 1451 1451 1450 1449 1449 1448 1448 1447 1446 1445 1444 1443 1442 1441 1440
1450 1450 1450 1450 1450 1450 1451 1451 1451 1451 1452 1453 1453 1453 1454 1454 1453 1453 1453 1453 1452 1451 1451 1451 1450 1450 1450 1450 1450 1449 1449 1448 1448 1447 1447 1446 1445 1444 1443 1443 1442 1441 1440 1439
1448 1448 1448 1448 1449 1449 1449 1449 1449 1450 1450 1451 1451 1452 1452 1452 1452 1451 1451 1451 1451 1450 1450 1450 1449 1449 1449 1449 1448 1447 1447 1446 1446 1446 1445 1445 1444 1443 1442 1441 1440 1439 1438 1437
1448 1448 1448 1447 1448 1448 1448 1447 1448 1449 1449 1450 1450 1450 1450 1450 1450 1450 1450 1450 1450 1449 1449 1449 1448 1448 1447 1447 1446 1446 1445 1444 1444 1444 1443 1443 1442 1441 1440 1439 1438 1437 1435 1434